Regional Weather Roundup
Issued by NWS

Home | Current Version | Previous Version | Text Only | Print | Product List | Glossary Off
Versions: 1 2 3 4 5 6 7 8 9 10 11 12 13 14 15 16 17 18 19 20 21 22 23 24 25 26 27 28 29 30 31 32 33 34 35 36 37 38 39 40 41 42 43 44 45 46 47 48 49 50

000
ASUS45 KTFX 250104
RWRMT
MONTANA HOURLY WEATHER ROUNDUP
NATIONAL WEATHER SERVICE GREAT FALLS MT
604 PM MST WED DEC 24 2014

NOTE: "FAIR" INDICATES FEW OR NO CLOUDS BELOW 12000 FEET WITH NO
SIGNIFICANT WEATHER AND/OR OBSTRUCTIONS TO VISIBILITY.

* THESE STATIONS ARE NOT UNDER NWS QUALITY CONTROL. THEY DO NOT
   REPORT WEATHER SUCH AS PRECIPITATION OR FOG.

MTZ001>007-043-250200-
WEST OF THE DIVIDE
CITY           SKY/WX    TMP DP  RH WIND       PRES   REMARKS
KALISPELL      LGT SNOW  34  32  92 VRB5      29.55R VSB 1    WCI  29
MISSOULA       LGT RAIN  36  34  92 NW10      29.51R WCI  29
BUTTE          LGT SNOW  30  27  89 NW7       29.42F VSB 2    WCI  23
MULLAN PASS    LGT SNOW  25  21  85 NW10G18   29.51R VSB M1/4 WCI  15
* ESSEX        N/A       30  28  92 N/A        N/A
* LINCOLN      N/A       30  28  92 NE9G17     N/A   WCI  22
* LOOKOUT PASS N/A       27  27 100 NE6        N/A   WCI  20
* POLSON       N/A       32  32 100 N1         N/A
* RONAN APT    CLOUDY    34  30  85 N8         N/A   WCI  27
* SEELEY LAKE  N/A       32  31  96 SW3        N/A
* THOMP F APT  CLOUDY    22  18  85 E4G10      N/A
$$

MTZ008-052>055-250200-
SOUTHWEST MONTANA
CITY           SKY/WX    TMP DP  RH WIND       PRES   REMARKS
BOZEMAN        CLOUDY    36  27  70 NE13      29.43S WCI  27
DILLON         CLOUDY    34  21  59 W5        29.42F WCI  29
* W YELLOWSTON CLOUDY    21  19  92 NE2        N/A
* THREE FORKS  CLOUDY    36  28  73 S25G35     N/A   WCI  24
* BOULDER HILL N/A       30  26  85 SW6        N/A   WCI  24
* MONIDA PASS  N/A       21  21 100 SE17G23    N/A   WCI   7
* RAYNOLDS PAS N/A       22   7  52 S15        N/A   WCI   9
* WHITEHALL    N/A       38  21  50 W13G25     N/A   WCI  30
* WISE RIVER   N/A       29  27  92 SE9        N/A   WCI  21
$$

MTZ009>010-012-014-046-048-049-054-250200-
EAST SLOPES AND CENTRAL MONTANA
CITY           SKY/WX    TMP DP  RH WIND       PRES   REMARKS
CUT BANK       LGT SNOW  30  28  92 NW10      29.56R VSB 1    WCI  21
GREAT FALLS    LGT SNOW  30  30 100 N12       29.51R VSB 1/2  WCI  20
HELENA         LGT SNOW  32  32 100 NW8       29.46S VSB 3/4  WCI  25
MALMSTROM AFB  LGT SNOW  32  32 100 N13       29.53S VSB 2    WCI  22
* DEARBORN     N/A       32  31  96 VRB9       N/A   WCI  24
* EAST GLACIER N/A       26  24  92 NE7        N/A   WCI  18
* MONARCH      N/A       26  24  92 NW8        N/A   WCI  18
* PENDROY      N/A       28  28 100 N13        N/A   WCI  17
* ROGERS PASS  N/A       26  25  96 N/A        N/A
* SWEET GRASS  N/A       29  28  96 N14G19     N/A   WCI  18
$$

MTZ011-013-016-021-035-040-045-047-050-051-250200-
NORTH CENTRAL MONTANA
CITY           SKY/WX    TMP DP  RH WIND       PRES   REMARKS
HAVRE          HVY RAIN  34  32  92 CALM      29.56R VSB 3
LEWISTOWN      LGT SNOW  32  30  92 NE6       29.47R VSB 1 1/4 WCI  26
* N BAR RANCH  FOG       30  28  92 NE6       29.47S VSB 1 3/4 WCI  24
* CHESTER      N/A       33  30  89 W1         N/A
* DENTON       N/A       32  31  96 NW9        N/A   WCI  24
* GEYSER       N/A       30  30 100 NE10       N/A   WCI  21
* JUDITH GAP   N/A       30  30 100 N19G24     N/A   WCI  18
* LOMA         N/A       33  32  96 NW6        N/A   WCI  27
$$

MTZ017>020-022>027-061-062-250200-
NORTHEAST MONTANA
CITY           SKY/WX    TMP DP  RH WIND       PRES   REMARKS
GLASGOW        CLOUDY    34  27  76 N7        29.51S WCI  28
GLENDIVE       CLOUDY    36  30  79 NW7       29.50S WCI  30
JORDAN         CLOUDY    34  32  92 CALM      29.50S
SIDNEY         CLOUDY    34  28  79 CALM      29.52R
WOLF POINT     MOCLDY    32  27  82 W6        29.51S WCI  26
* BEAVER HILL  N/A       32  30  92 N/A        N/A
* CIRCLE       N/A       35  32  89 NW5        N/A   WCI  31
* LINDSAY DVD  N/A       33  32  96 NW6        N/A   WCI  27
* NAVAJO       N/A       27  21  78 NW15       N/A   WCI  15
* SACO         N/A       32  29  89 NW6        N/A   WCI  26
$$

MTZ028>042-056>058-250200-
SOUTHCENTRAL AND SOUTHEAST MONTANA
CITY           SKY/WX    TMP DP  RH WIND       PRES   REMARKS
BAKER          LGT SNOW  32  30  92 NW5       29.48R VSB 2    WCI  27
BILLINGS       CLOUDY    39  18  43 NE6       29.42S WCI  35
LIVINGSTON     CLOUDY    34  27  76 SW30G43   29.40F WCI  20
MILES CITY     LGT SNOW  34  32  92 N7        29.49R WCI  28
* LAUREL APT   CLOUDY    39  14  36 SW10G17    N/A   WCI  32
* ROUNDUP APT  CLOUDY    34  28  79 NE6        N/A   WCI  29
* ALZADA       N/A       33  28  82 S2         N/A
* HYSHAM       N/A       34  31  89 NE9        N/A   WCI  27
* LAME DEER    N/A       34  20  57 NE4        N/A
* REED POINT   N/A       34  21  59 N/A        N/A
* ROSCOE HILL  N/A       39  11  31 S17G28     N/A   WCI  30
$$

REGIONAL REPORTS...DAKOTAS
CITY           SKY/WX    TMP DP  RH WIND       PRES   REMARKS
WILLISTON      PTCLDY    27  21  78 CALM      29.49R
DICKINSON      CLOUDY    36  30  79 NW6       29.44S WCI  31
BEACH          CLOUDY    32  32 100 NW8       29.48F WCI  25
CROSBY         CLEAR     23  23 100 SW8       29.47S WCI  14
WATFORD CITY   CLEAR     32  28  85 CALM      29.47R
BISMARCK       CLOUDY    30  28  92 CALM      29.46F
GRAND FORKS    LGT SNOW  28  27  96 S16       29.46F WCI  16
FARGO          CLOUDY    28  25  89 S14       29.52F WCI  17
BUFFALO SD     CLOUDY    36  28  73 NW10      29.38F WCI  29
RAPID CITY     CLOUDY    34  25  70 CALM      29.45F
$$

REGIONAL REPORTS...WYOMING/IDAHO/WASHINGTON
CITY           SKY/WX    TMP DP  RH WIND       PRES   REMARKS
GILLETTE       CLOUDY    37  25  62 SW17G26   29.42F WCI  27
SHERIDAN       CLOUDY    34  28  79 CALM      29.41F
CODY           CLOUDY    41  25  53 W14G23    29.42F
YELLOWSTONE LA CLOUDY    21  19  92 CALM      29.52F
SALMON         CLOUDY    30  28  92 CALM      29.47F VSB 1 3/4
MULLAN PASS    LGT SNOW  25  21  85 NW10G18   29.51S VSB M1/4 WCI  15
SAND POINT     CLOUDY    32  32 100 CALM      29.67R
SPOKANE        CLOUDY    36  34  92 W7        29.67R WCI  30
$$

REGIONAL REPORTS...SASKATCHEWAN
CITY           SKY/WX    TMP DP  RH WIND       PRES   REMARKS
SWIFT CURRENT  MOCLDY    23  19  85 W12       29.51R WCI  11

$$




USA.gov is the U.S. government's official web portal to all federal, state and local government web resources and services.